QPF
0.00 0.00 0.00 0.00 0.00 0.00 0.00 0.02 0.04 0.03 0.03 0.06 0.11 0.06 0.04 0.02 0.03 0.05 0.05 0.05 0.03 0.03 0.03 0.03 0.03 0.03 0.02 0.01 0.02 0.02 0.02 0.03 0.03 0.03 0.03 0.03 0.04 0.05 0.05 0.05 0.04 0.05 0.05 0.05
0.00 0.00 0.00 0.00 0.00 0.00 0.00 0.01 0.05 0.04 0.02 0.01 0.03 0.04 0.03 0.01 0.03 0.07 0.07 0.06 0.03 0.02 0.02 0.02 0.02 0.01 0.01 0.01 0.01 0.01 0.02 0.03 0.03 0.02 0.02 0.03 0.02 0.02 0.02 0.03 0.03 0.02 0.02 0.02
0.00 0.00 0.00 0.00 0.00 0.00 0.01 0.01 0.03 0.02 0.02 0.02 0.04 0.07 0.07 0.05 0.02 0.05 0.06 0.04 0.03 0.03 0.02 0.01 0.01 0.01 0.01 0.01 0.02 0.03 0.03 0.03 0.03 0.02 0.02 0.03 0.03 0.02 0.03 0.03 0.03 0.02 0.03 0.02
0.00 0.00 0.00 0.00 0.00 0.01 0.03 0.01 0.01 0.01 0.03 0.09 0.10 0.18 0.16 0.12 0.05 0.03 0.04 0.04 0.02 0.02 0.01 0.01 0.01 0.02 0.01 0.01 0.01 0.02 0.03 0.02 0.01 0.01 0.02 0.03 0.03 0.03 0.03 0.03 0.03 0.03 0.02 0.02
0.00 0.00 0.00 0.00 0.00 0.00 0.01 0.00 0.00 0.01 0.03 0.10 0.11 0.13 0.14 0.07 0.05 0.04 0.02 0.01 0.01 0.01 0.01 0.01 0.01 0.01 0.00 0.00 0.00 0.01 0.02 0.01 0.01 0.01 0.01 0.01 0.01 0.01 0.01 0.01 0.02 0.01 0.01 0.01
0.00 0.00 0.00 0.00 0.00 0.00 0.00 0.00 0.01 0.04 0.10 0.20 0.09 0.06 0.09 0.07 0.04 0.04 0.03 0.01 0.00 0.00 0.00 0.00 0.00 0.00 0.00 0.00 0.00 0.00 0.00 0.00 0.00 0.00 0.00 0.01 0.01 0.01 0.00 0.00 0.01 0.00 0.00 0.00
0.01 0.01 0.01 0.00 0.00 0.00 0.01 0.05 0.15 0.20 0.20 0.13 0.04 0.03 0.06 0.02 0.00 0.00 0.00 0.00 0.00 0.00 0.00 0.00 0.00 0.00 0.00 0.00 0.00 0.00 0.00 0.00 0.00 0.00 0.00 0.01 0.01 0.01 0.01 0.01 0.00 0.00 0.00 0.00
0.01 0.03 0.01 0.00 0.00 0.00 0.00 0.05 0.12 0.10 0.13 0.08 0.03 0.03 0.03 0.01 0.00 0.00 0.00 0.00 0.00 0.00 0.00 0.00 0.00 0.00 0.00 0.00 0.00 0.00 0.00 0.00 0.00 0.00 0.01 0.01 0.01 0.00 0.00 0.00 0.00 0.00 0.01 0.00
0.01 0.01 0.00 0.00 0.00 0.00 0.00 0.00 0.01 0.01 0.03 0.04 0.03 0.03 0.02 0.00 0.00 0.00 0.00 0.00 0.00 0.00 0.00 0.00 0.00 0.00 0.00 0.00 0.00 0.00 0.00 0.00 0.00 0.00 0.00 0.01 0.01 0.00 0.01 0.01 0.01 0.01 0.01 0.00
0.00 0.00 0.00 0.00 0.00 0.00 0.00 0.00 0.01 0.01 0.02 0.04 0.05 0.04 0.04 0.04 0.00 0.00 0.00 0.00 0.00 0.00 0.00 0.00 0.00 0.00 0.00 0.00 0.00 0.00 0.00 0.00 0.00 0.00 0.00 0.00 0.00 0.00 0.01 0.01 0.01 0.01 0.01 0.01
0.00 0.00 0.00 0.00 0.00 0.00 0.01 0.01 0.00 0.00 0.00 0.01 0.05 0.04 0.02 0.02 0.00 0.00 0.00 0.00 0.00 0.00 0.00 0.00 0.00 0.00 0.00 0.00 0.00 0.00 0.00 0.00 0.00 0.00 0.00 0.00 0.00 0.00 0.00 0.01 0.01 0.01 0.01 0.01
0.00 0.00 0.00 0.01 0.01 0.01 0.01 0.01 0.00 0.00 0.00 0.00 0.01 0.02 0.01 0.00 0.00 0.00 0.00 0.00 0.00 0.00 0.00 0.00 0.00 0.00 0.00 0.00 0.00 0.00 0.00 0.00 0.00 0.00 0.00 0.00 0.01 0.01 0.01 0.01 0.01 0.01 0.01 0.01
0.00 0.00 0.01 0.04 0.04 0.03 0.01 0.00 0.00 0.00 0.00 0.00 0.00 0.01 0.01 0.00 0.00 0.00 0.00 0.00 0.00 0.00 0.00 0.00 0.00 0.00 0.00 0.00 0.00 0.00 0.00 0.00 0.00 0.00 0.00 0.01 0.01 0.01 0.02 0.02 0.01 0.01 0.01 0.01
0.00 0.00 0.01 0.08 0.09 0.05 0.02 0.01 0.00 0.00 0.00 0.00 0.00 0.01 0.00 0.00 0.00 0.00 0.00 0.00 0.00 0.00 0.00 0.00 0.00 0.00 0.00 0.00 0.00 0.00 0.00 0.00 0.00 0.00 0.00 0.01 0.01 0.01 0.02 0.02 0.02 0.01 0.02 0.02
0.00 0.00 0.00 0.01 0.01 0.01 0.01 0.01 0.00 0.00 0.00 0.00 0.00 0.00 0.00 0.00 0.00 0.00 0.00 0.00 0.00 0.00 0.00 0.00 0.00 0.00 0.00 0.00 0.00 0.00 0.00 0.00 0.00 0.00 0.01 0.01 0.01 0.01 0.02 0.01 0.01 0.01 0.02 0.01
0.00 0.00 0.00 0.00 0.00 0.00 0.00 0.00 0.00 0.00 0.00 0.00 0.00 0.00 0.00 0.00 0.00 0.00 0.00 0.00 0.00 0.00 0.00 0.00 0.00 0.00 0.00 0.00 0.00 0.00 0.00 0.00 0.00 0.00 0.00 0.00 0.01 0.01 0.01 0.01 0.01 0.01 0.02 0.02
0.00 0.00 0.00 0.01 0.01 0.00 0.00 0.00 0.00 0.00 0.00 0.00 0.00 0.00 0.00 0.00 0.00 0.00 0.00 0.00 0.00 0.00 0.00 0.00 0.00 0.00 0.00 0.00 0.00 0.00 0.00 0.00 0.00 0.00 0.00 0.00 0.00 0.00 0.01 0.01 0.01 0.01 0.02 0.02
0.00 0.00 0.00 0.00 0.00 0.00 0.00 0.00 0.00 0.00 0.00 0.00 0.00 0.00 0.00 0.00 0.00 0.00 0.00 0.00 0.00 0.00 0.00 0.00 0.00 0.00 0.00 0.00 0.00 0.00 0.00 0.00 0.00 0.00 0.00 0.00 0.00 0.00 0.00 0.01 0.01 0.02 0.02 0.02
0.00 0.00 0.00 0.00 0.00 0.00 0.01 0.00 0.00 0.00 0.00 0.00 0.00 0.00 0.00 0.00 0.00 0.00 0.00 0.00 0.00 0.00 0.00 0.00 0.00 0.00 0.00 0.00 0.00 0.00 0.00 0.00 0.00 0.00 0.00 0.00 0.00 0.00 0.01 0.01 0.01 0.02 0.02 0.02
0.00 0.00 0.00 0.00 0.00 0.02 0.01 0.01 0.00 0.00 0.00 0.00 0.00 0.00 0.00 0.00 0.00 0.00 0.00 0.00 0.00 0.00 0.00 0.00 0.00 0.00 0.00 0.00 0.00 0.00 0.00 0.00 0.00 0.00 0.00 0.00 0.00 0.01 0.01 0.01 0.02 0.02 0.02 0.02
0.01 0.00 0.00 0.00 0.00 0.00 0.01 0.01 0.00 0.00 0.00 0.00 0.00 0.00 0.00 0.00 0.00 0.00 0.00 0.00 0.00 0.00 0.00 0.00 0.00 0.00 0.00 0.00 0.00 0.00 0.00 0.00 0.00 0.00 0.00 0.00 0.00 0.01 0.00 0.01 0.02 0.02 0.02 0.02
0.01 0.00 0.01 0.01 0.01 0.01 0.02 0.01 0.01 0.01 0.00 0.00 0.00 0.00 0.00 0.00 0.00 0.00 0.00 0.00 0.00 0.00 0.00 0.00 0.00 0.00 0.00 0.00 0.00 0.00 0.00 0.00 0.00 0.00 0.00 0.01 0.01 0.00 0.00 0.01 0.02 0.02 0.02 0.02
0.00 0.01 0.02 0.04 0.05 0.02 0.02 0.02 0.02 0.01 0.01 0.01 0.00 0.00 0.00 0.00 0.00 0.00 0.00 0.00 0.00 0.00 0.00 0.00 0.00 0.00 0.00 0.00 0.00 0.00 0.00 0.00 0.00 0.00 0.01 0.01 0.01 0.01 0.00 0.01 0.01 0.02 0.02 0.01
0.01 0.01 0.03 0.06 0.07 0.03 0.01 0.01 0.01 0.01 0.01 0.00 0.00 0.00 0.00 0.00 0.00 0.00 0.00 0.00 0.00 0.00 0.00 0.00 0.00 0.00 0.00 0.00 0.00 0.00 0.00 0.00 0.00 0.01 0.01 0.01 0.01 0.00 0.00 0.01 0.00 0.00 0.01 0.01
0.02 0.02 0.01 0.02 0.02 0.02 0.01 0.00 0.01 0.01 0.02 0.01 0.00 0.00 0.00 0.00 0.00 0.00 0.00 0.00 0.00 0.00 0.00 0.00 0.00 0.00 0.00 0.00 0.00 0.00 0.00 0.00 0.00 0.00 0.00 0.00 0.00 0.00 0.00 0.00 0.00 0.00 0.00 0.00
0.01 0.02 0.01 0.01 0.00 0.01 0.00 0.01 0.01 0.00 0.00 0.00 0.00 0.00 0.00 0.00 0.00 0.00 0.00 0.00 0.00 0.00 0.00 0.00 0.00 0.00 0.00 0.00 0.00 0.00 0.00 0.00 0.00 0.00 0.00 0.00 0.00 0.00 0.00 0.00 0.00 0.00 0.00 0.00
MSLP
1009.29 1009.35 1009.36 1009.43 1009.64 1010.07 1010.73 1011.57 1012.50 1013.40 1014.12 1014.58 1014.73 1014.58 1014.19 1013.67 1013.14 1012.71 1012.45 1012.38 1012.49 1012.72 1013.00 1013.25 1013.44 1013.55 1013.58 1013.58 1013.58 1013.63 1013.73 1013.89 1014.07 1014.24 1014.36 1014.41 1014.39 1014.30 1014.20 1014.12 1014.10 1014.17 1014.34 1014.58
1009.35 1009.29 1009.19 1009.15 1009.30 1009.72 1010.41 1011.34 1012.39 1013.40 1014.24 1014.79 1014.98 1014.82 1014.40 1013.81 1013.21 1012.73 1012.44 1012.39 1012.54 1012.84 1013.20 1013.52 1013.76 1013.88 1013.89 1013.83 1013.76 1013.74 1013.79 1013.91 1014.09 1014.29 1014.45 1014.55 1014.56 1014.49 1014.37 1014.25 1014.18 1014.18 1014.29 1014.48
1009.24 1009.09 1008.90 1008.81 1008.95 1009.40 1010.17 1011.20 1012.37 1013.50 1014.43 1015.04 1015.24 1015.06 1014.56 1013.88 1013.19 1012.62 1012.28 1012.21 1012.39 1012.74 1013.17 1013.57 1013.86 1014.02 1014.05 1013.98 1013.89 1013.84 1013.86 1013.99 1014.19 1014.42 1014.64 1014.79 1014.85 1014.80 1014.69 1014.54 1014.41 1014.35 1014.39 1014.52
1009.01 1008.80 1008.57 1008.48 1008.66 1009.18 1010.06 1011.22 1012.51 1013.75 1014.76 1015.39 1015.58 1015.34 1014.74 1013.95 1013.13 1012.46 1012.04 1011.92 1012.09 1012.47 1012.95 1013.42 1013.80 1014.02 1014.09 1014.06 1013.98 1013.94 1013.97 1014.12 1014.35 1014.64 1014.91 1015.12 1015.23 1015.21 1015.10 1014.93 1014.76 1014.64 1014.61 1014.68
1008.73 1008.48 1008.26 1008.22 1008.47 1009.10 1010.10 1011.38 1012.78 1014.10 1015.16 1015.80 1015.96 1015.63 1014.93 1014.01 1013.06 1012.27 1011.75 1011.57 1011.71 1012.10 1012.63 1013.17 1013.62 1013.91 1014.06 1014.08 1014.05 1014.04 1014.10 1014.28 1014.55 1014.88 1015.20 1015.46 1015.61 1015.63 1015.53 1015.35 1015.15 1014.98 1014.88 1014.89
1008.48 1008.23 1008.04 1008.07 1008.41 1009.15 1010.25 1011.62 1013.10 1014.46 1015.53 1016.15 1016.25 1015.85 1015.06 1014.02 1012.97 1012.07 1011.46 1011.22 1011.33 1011.72 1012.28 1012.87 1013.39 1013.76 1013.98 1014.07 1014.10 1014.13 1014.23 1014.43 1014.73 1015.09 1015.45 1015.75 1015.94 1015.98 1015.90 1015.72 1015.49 1015.28 1015.13 1015.07
1008.35 1008.12 1007.98 1008.06 1008.48 1009.29 1010.44 1011.85 1013.33 1014.68 1015.72 1016.29 1016.34 1015.88 1015.02 1013.93 1012.81 1011.85 1011.20 1010.91 1011.00 1011.39 1011.96 1012.60 1013.17 1013.61 1013.90 1014.05 1014.13 1014.20 1014.33 1014.55 1014.86 1015.23 1015.60 1015.92 1016.13 1016.20 1016.13 1015.95 1015.72 1015.48 1015.28 1015.17
1008.37 1008.18 1008.08 1008.22 1008.67 1009.48 1010.61 1011.96 1013.37 1014.64 1015.60 1016.11 1016.11 1015.63 1014.76 1013.67 1012.57 1011.62 1010.97 1010.69 1010.78 1011.17 1011.75 1012.41 1013.01 1013.50 1013.84 1014.04 1014.16 1014.26 1014.40 1014.61 1014.91 1015.27 1015.63 1015.95 1016.17 1016.25 1016.19 1016.02 1015.79 1015.53 1015.30 1015.14
1008.56 1008.41 1008.36 1008.51 1008.94 1009.68 1010.70 1011.92 1013.17 1014.29 1015.12 1015.54 1015.51 1015.04 1014.23 1013.23 1012.23 1011.37 1010.80 1010.57 1010.68 1011.08 1011.67 1012.33 1012.95 1013.46 1013.82 1014.05 1014.19 1014.30 1014.44 1014.64 1014.91 1015.24 1015.57 1015.86 1016.07 1016.15 1016.10 1015.94 1015.70 1015.44 1015.20 1015.00
1008.86 1008.78 1008.77 1008.92 1009.28 1009.88 1010.72 1011.70 1012.72 1013.62 1014.29 1014.62 1014.57 1014.16 1013.48 1012.64 1011.81 1011.12 1010.68 1010.55 1010.72 1011.14 1011.73 1012.37 1012.98 1013.48 1013.85 1014.09 1014.24 1014.35 1014.48 1014.65 1014.89 1015.17 1015.46 1015.71 1015.89 1015.95 1015.90 1015.75 1015.52 1015.26 1015.00 1014.79
1009.18 1009.21 1009.25 1009.37 1009.64 1010.07 1010.66 1011.36 1012.09 1012.74 1013.22 1013.45 1013.40 1013.09 1012.57 1011.95 1011.36 1010.89 1010.63 1010.63 1010.87 1011.31 1011.89 1012.50 1013.07 1013.55 1013.90 1014.14 1014.30 1014.41 1014.53 1014.69 1014.88 1015.11 1015.35 1015.55 1015.69 1015.73 1015.67 1015.51 1015.29 1015.04 1014.78 1014.55
1009.44 1009.60 1009.71 1009.83 1010.00 1010.24 1010.58 1010.98 1011.40 1011.79 1012.07 1012.20 1012.16 1011.95 1011.63 1011.26 1010.93 1010.70 1010.64 1010.78 1011.09 1011.55 1012.10 1012.67 1013.19 1013.62 1013.96 1014.19 1014.36 1014.48 1014.60 1014.75 1014.91 1015.10 1015.28 1015.43 1015.52 1015.53 1015.45 1015.29 1015.07 1014.83 1014.58 1014.35
1009.58 1009.89 1010.10 1010.23 1010.32 1010.40 1010.50 1010.62 1010.75 1010.87 1010.97 1011.00 1010.97 1010.89 1010.76 1010.63 1010.55 1010.57 1010.70 1010.96 1011.33 1011.80 1012.30 1012.81 1013.27 1013.66 1013.97 1014.21 1014.39 1014.54 1014.69 1014.83 1014.99 1015.14 1015.27 1015.37 1015.41 1015.37 1015.27 1015.10 1014.88 1014.65 1014.41 1014.19
1009.56 1010.04 1010.36 1010.54 1010.59 1010.55 1010.45 1010.32 1010.20 1010.10 1010.02 1009.98 1009.96 1009.97 1010.02 1010.11 1010.26 1010.48 1010.77 1011.13 1011.54 1011.99 1012.45 1012.88 1013.28 1013.63 1013.92 1014.17 1014.39 1014.58 1014.75 1014.92 1015.07 1015.21 1015.30 1015.35 1015.33 1015.25 1015.12 1014.93 1014.72 1014.49 1014.27 1014.06
1009.43 1010.05 1010.49 1010.74 1010.78 1010.66 1010.41 1010.10 1009.78 1009.50 1009.29 1009.17 1009.16 1009.25 1009.43 1009.70 1010.03 1010.41 1010.82 1011.25 1011.68 1012.10 1012.50 1012.86 1013.20 1013.51 1013.80 1014.06 1014.32 1014.56 1014.78 1014.98 1015.15 1015.27 1015.33 1015.33 1015.26 1015.13 1014.96 1014.76 1014.54 1014.32 1014.12 1013.93
1009.23 1009.97 1010.51 1010.82 1010.87 1010.71 1010.37 1009.93 1009.47 1009.05 1008.73 1008.56 1008.55 1008.69 1008.98 1009.38 1009.84 1010.34 1010.83 1011.30 1011.73 1012.11 1012.45 1012.75 1013.04 1013.32 1013.60 1013.89 1014.19 1014.48 1014.76 1014.99 1015.17 1015.28 1015.31 1015.27 1015.15 1014.98 1014.77 1014.54 1014.32 1014.11 1013.92 1013.75
1009.05 1009.84 1010.44 1010.79 1010.86 1010.68 1010.29 1009.77 1009.21 1008.70 1008.31 1008.09 1008.08 1008.26 1008.62 1009.10 1009.66 1010.24 1010.79 1011.28 1011.70 1012.04 1012.33 1012.58 1012.83 1013.09 1013.37 1013.68 1014.02 1014.35 1014.67 1014.93 1015.12 1015.22 1015.22 1015.14 1014.97 1014.76 1014.51 1014.26 1014.03 1013.83 1013.65 1013.50
1008.93 1009.71 1010.31 1010.66 1010.73 1010.53 1010.11 1009.55 1008.93 1008.37 1007.93 1007.70 1007.68 1007.89 1008.30 1008.84 1009.46 1010.09 1010.68 1011.19 1011.60 1011.92 1012.18 1012.39 1012.61 1012.85 1013.14 1013.46 1013.82 1014.19 1014.53 1014.81 1015.00 1015.09 1015.06 1014.94 1014.73 1014.47 1014.20 1013.93 1013.68 1013.48 1013.31 1013.18
1008.88 1009.58 1010.12 1010.42 1010.47 1010.24 1009.80 1009.21 1008.58 1007.99 1007.54 1007.30 1007.30 1007.53 1007.97 1008.57 1009.23 1009.91 1010.53 1011.05 1011.47 1011.79 1012.03 1012.23 1012.42 1012.65 1012.93 1013.27 1013.63 1014.01 1014.36 1014.64 1014.82 1014.89 1014.84 1014.68 1014.44 1014.15 1013.85 1013.56 1013.31 1013.10 1012.94 1012.82
1008.86 1009.43 1009.86 1010.08 1010.07 1009.81 1009.35 1008.75 1008.11 1007.53 1007.10 1006.87 1006.89 1007.16 1007.64 1008.27 1008.98 1009.69 1010.35 1010.91 1011.34 1011.67 1011.91 1012.10 1012.29 1012.51 1012.78 1013.10 1013.46 1013.83 1014.17 1014.44 1014.61 1014.65 1014.58 1014.40 1014.14 1013.83 1013.51 1013.21 1012.95 1012.74 1012.58 1012.46
1008.79 1009.20 1009.50 1009.61 1009.52 1009.22 1008.74 1008.14 1007.53 1006.98 1006.58 1006.39 1006.45 1006.76 1007.28 1007.95 1008.70 1009.46 1010.16 1010.75 1011.22 1011.56 1011.82 1012.01 1012.20 1012.41 1012.66 1012.96 1013.30 1013.65 1013.97 1014.22 1014.37 1014.40 1014.31 1014.12 1013.85 1013.53 1013.20 1012.90 1012.63 1012.43 1012.27 1012.15
1008.60 1008.85 1008.99 1008.99 1008.82 1008.48 1007.99 1007.42 1006.84 1006.35 1006.01 1005.88 1005.99 1006.35 1006.91 1007.63 1008.42 1009.22 1009.95 1010.58 1011.08 1011.46 1011.73 1011.94 1012.12 1012.32 1012.55 1012.83 1013.14 1013.46 1013.75 1013.98 1014.12 1014.14 1014.05 1013.86 1013.59 1013.27 1012.95 1012.64 1012.38 1012.18 1012.02 1011.91
1008.22 1008.32 1008.33 1008.23 1007.99 1007.62 1007.14 1006.61 1006.09 1005.67 1005.41 1005.35 1005.53 1005.94 1006.55 1007.30 1008.13 1008.95 1009.72 1010.38 1010.91 1011.31 1011.61 1011.82 1012.01 1012.20 1012.41 1012.67 1012.95 1013.24 1013.51 1013.72 1013.85 1013.87 1013.79 1013.60 1013.34 1013.04 1012.73 1012.43 1012.18 1011.98 1011.83 1011.73
1007.64 1007.62 1007.52 1007.34 1007.06 1006.68 1006.23 1005.76 1005.33 1004.99 1004.82 1004.84 1005.09 1005.55 1006.20 1006.98 1007.82 1008.67 1009.45 1010.13 1010.68 1011.11 1011.41 1011.64 1011.83 1012.01 1012.21 1012.44 1012.70 1012.97 1013.22 1013.42 1013.54 1013.57 1013.50 1013.33 1013.09 1012.80 1012.51 1012.22 1011.98 1011.79 1011.66 1011.58
1006.91 1006.79 1006.63 1006.39 1006.09 1005.73 1005.33 1004.94 1004.60 1004.36 1004.28 1004.39 1004.69 1005.20 1005.87 1006.66 1007.51 1008.35 1009.14 1009.82 1010.38 1010.81 1011.13 1011.37 1011.56 1011.74 1011.93 1012.14 1012.38 1012.63 1012.87 1013.06 1013.19 1013.22 1013.16 1013.01 1012.79 1012.52 1012.24 1011.97 1011.74 1011.57 1011.45 1011.39
1006.12 1005.95 1005.73 1005.48 1005.19 1004.86 1004.53 1004.22 1003.97 1003.83 1003.83 1004.01 1004.36 1004.89 1005.57 1006.36 1007.19 1008.01 1008.78 1009.45 1010.00 1010.44 1010.76 1011.00 1011.20 1011.37 1011.56 1011.76 1011.99 1012.22 1012.45 1012.63 1012.76 1012.80 1012.75 1012.62 1012.41 1012.16 1011.89 1011.63 1011.41 1011.25 1011.16 1011.12
Thickness
5806 5791 5785 5794 5799 5796 5794 5784 5775 5776 5782 5773 5760 5753 5757 5764 5761 5755 5750 5748 5747 5745 5748 5747 5744 5742 5737 5732 5728 5724 5721 5719 5717 5715 5713 5711 5711 5711 5712 5710 5708 5706 5704 5704
5793 5785 5802 5812 5810 5803 5792 5779 5775 5777 5786 5778 5760 5752 5758 5761 5758 5754 5749 5745 5745 5743 5742 5741 5739 5736 5731 5727 5723 5719 5715 5713 5711 5709 5708 5708 5706 5706 5707 5705 5702 5700 5699 5698
5793 5804 5816 5808 5800 5791 5784 5780 5777 5772 5778 5771 5757 5741 5744 5749 5758 5755 5752 5749 5748 5743 5739 5737 5735 5731 5728 5723 5719 5716 5710 5707 5705 5704 5704 5702 5701 5701 5699 5696 5696 5695 5693 5693
5801 5814 5812 5802 5795 5790 5774 5793 5790 5782 5765 5744 5744 5718 5731 5739 5742 5747 5747 5748 5747 5745 5741 5737 5732 5727 5724 5721 5717 5712 5707 5703 5700 5699 5696 5692 5690 5688 5689 5689 5689 5689 5688 5688
5797 5808 5804 5796 5798 5797 5791 5798 5787 5775 5758 5738 5735 5724 5727 5736 5734 5742 5748 5749 5749 5747 5743 5736 5731 5726 5723 5720 5715 5709 5703 5698 5695 5693 5690 5686 5684 5682 5683 5683 5683 5682 5683 5684
5806 5816 5812 5807 5810 5806 5802 5792 5776 5761 5740 5715 5734 5733 5724 5736 5745 5749 5751 5752 5751 5749 5744 5737 5733 5727 5721 5718 5713 5706 5700 5694 5691 5688 5685 5681 5678 5676 5675 5675 5675 5676 5677 5677
5785 5795 5809 5813 5798 5800 5795 5769 5737 5721 5710 5719 5752 5747 5736 5756 5764 5761 5756 5754 5754 5750 5744 5737 5730 5724 5719 5714 5709 5703 5697 5691 5688 5685 5681 5678 5675 5673 5672 5670 5670 5668 5668 5668
5771 5770 5795 5806 5798 5789 5789 5776 5744 5725 5728 5736 5754 5747 5750 5771 5772 5770 5765 5760 5754 5749 5744 5737 5731 5724 5718 5712 5706 5701 5694 5688 5684 5681 5677 5674 5672 5670 5668 5665 5663 5662 5661 5661
5779 5776 5802 5810 5812 5805 5788 5783 5787 5766 5753 5736 5744 5749 5755 5770 5766 5766 5763 5758 5752 5748 5743 5737 5731 5725 5718 5711 5705 5700 5693 5687 5682 5679 5675 5673 5670 5666 5663 5661 5659 5658 5656 5655
5802 5783 5798 5810 5811 5809 5803 5796 5787 5770 5744 5730 5734 5741 5739 5751 5757 5762 5760 5755 5752 5748 5743 5737 5731 5724 5717 5712 5706 5701 5694 5687 5682 5678 5673 5672 5667 5664 5661 5657 5654 5652 5650 5649
5810 5787 5789 5798 5790 5787 5787 5785 5780 5779 5774 5749 5729 5732 5763 5763 5764 5763 5761 5758 5752 5747 5743 5737 5731 5724 5718 5713 5707 5699 5693 5686 5680 5676 5671 5667 5664 5661 5658 5654 5651 5649 5646 5643
5809 5795 5776 5780 5797 5800 5790 5785 5781 5762 5759 5767 5755 5739 5776 5774 5773 5768 5764 5759 5755 5749 5744 5737 5730 5723 5716 5710 5704 5698 5692 5685 5680 5675 5670 5666 5662 5658 5654 5650 5647 5644 5641 5639
5802 5783 5760 5753 5762 5775 5778 5786 5786 5780 5769 5762 5750 5742 5775 5774 5772 5770 5764 5758 5752 5746 5741 5735 5727 5719 5712 5706 5700 5695 5689 5684 5679 5673 5668 5663 5658 5654 5650 5646 5643 5640 5637 5634
5802 5781 5764 5741 5741 5754 5761 5777 5783 5778 5763 5758 5757 5752 5763 5767 5766 5766 5762 5756 5750 5744 5737 5731 5722 5716 5710 5703 5697 5692 5687 5681 5676 5670 5665 5659 5655 5651 5647 5643 5640 5636 5633 5629
5798 5777 5774 5774 5778 5775 5774 5778 5783 5780 5776 5766 5765 5765 5765 5770 5769 5767 5762 5755 5748 5741 5735 5728 5720 5714 5708 5701 5696 5690 5684 5679 5673 5667 5662 5657 5653 5649 5645 5640 5636 5633 5629 5626
5791 5774 5773 5773 5784 5785 5783 5786 5787 5785 5785 5781 5777 5770 5778 5777 5774 5766 5760 5753 5745 5740 5735 5729 5721 5714 5707 5700 5694 5688 5682 5676 5671 5665 5660 5656 5651 5646 5642 5638 5634 5630 5625 5621
5785 5772 5761 5758 5776 5778 5769 5787 5788 5787 5789 5783 5771 5771 5777 5771 5767 5762 5758 5753 5746 5741 5736 5728 5721 5714 5706 5700 5693 5685 5680 5675 5669 5664 5659 5654 5649 5645 5640 5636 5631 5626 5622 5618
5778 5769 5765 5759 5757 5739 5774 5804 5799 5787 5787 5790 5783 5780 5778 5772 5769 5767 5762 5754 5747 5742 5735 5728 5721 5714 5708 5701 5693 5686 5680 5674 5668 5663 5658 5653 5648 5643 5639 5634 5628 5624 5620 5615
5788 5772 5762 5756 5749 5755 5777 5791 5794 5782 5778 5791 5783 5780 5778 5776 5768 5761 5762 5756 5748 5742 5735 5728 5722 5715 5707 5700 5693 5685 5678 5673 5668 5662 5657 5652 5647 5642 5637 5632 5626 5622 5618 5613
5786 5778 5762 5757 5743 5733 5759 5787 5800 5786 5764 5788 5785 5777 5775 5768 5749 5750 5758 5753 5746 5741 5733 5727 5721 5714 5704 5697 5691 5683 5677 5672 5666 5661 5656 5651 5646 5640 5635 5631 5626 5621 5616 5612
5760 5760 5756 5753 5749 5759 5779 5792 5791 5758 5756 5783 5784 5778 5773 5764 5756 5753 5754 5748 5742 5736 5730 5724 5718 5710 5703 5696 5688 5680 5675 5670 5666 5662 5656 5650 5645 5640 5636 5631 5626 5621 5616 5611
5757 5756 5753 5751 5743 5749 5782 5783 5770 5763 5780 5782 5781 5778 5771 5763 5758 5754 5749 5742 5737 5732 5727 5721 5713 5706 5701 5694 5686 5679 5673 5670 5665 5660 5654 5649 5644 5640 5637 5630 5625 5621 5615 5610
5773 5771 5759 5747 5745 5763 5778 5777 5779 5782 5778 5778 5778 5777 5770 5762 5755 5750 5744 5738 5734 5729 5724 5718 5711 5704 5698 5692 5685 5678 5674 5669 5663 5658 5652 5647 5643 5639 5635 5629 5625 5621 5616 5610
5769 5775 5762 5749 5753 5763 5775 5776 5779 5782 5780 5780 5779 5775 5770 5760 5754 5747 5740 5735 5730 5725 5719 5714 5708 5701 5695 5691 5685 5679 5674 5668 5662 5655 5650 5646 5642 5638 5635 5630 5625 5620 5614 5608
5758 5760 5756 5751 5762 5767 5770 5776 5778 5779 5778 5776 5776 5773 5767 5759 5752 5745 5738 5732 5727 5722 5717 5711 5704 5698 5693 5689 5683 5678 5673 5667 5660 5654 5649 5645 5642 5639 5634 5630 5625 5620 5614 5608
5763 5758 5751 5748 5764 5764 5764 5775 5778 5773 5770 5770 5768 5765 5763 5758 5750 5744 5737 5730 5724 5718 5713 5706 5701 5696 5691 5686 5681 5676 5671 5664 5657 5651 5648 5644 5641 5638 5634 5629 5625 5621 5614 5608